Volver al catálogo

STARLINK-4432

ActivoComunicacionesSSO
NORAD 53487·PAYLOAD·🇺🇸 United States

Lanzado Aug 12, 2022 desde Vandenberg Space Force Base

Loading…

Próximos Pases (próximas 24 horas)

TLE

ActualizadoSource: CelesTrak SupGP

Época: Sep 14, 2026, 21:53 UTC

1 53487C 22099Y   26257.91229167 -.00051719  00000+0 -16052-2 0  2575
2 53487  97.2858  15.6977 0001417  95.3762   0.6367 15.33470691    10

Sigue STARLINK-4432 en tiempo real con AllMySat

Download on the App Store